Weather History for Springfield, IL

Change the Weather History Date:

Thursday, May 9, 2013

  Actual Average Record
Temperature  
Mean Temperature 64 °F 62 °F  
Max Temperature 68 °F 73 °F 93 °F (1963)
Min Temperature 60 °F 50 °F 32 °F (1966)
Degree Days  
Heating Degree Days 1 5  
Month to date heating degree days 55  
Since 1 July heating degree days 5400  
Cooling Degree Days 0 2  
Month to date cooling degree days 8 12  
Year to date cooling degree days 22 32  
Growing Degree Days 14 (Base 50)    
Moisture  
Dew Point 61 °F    
Average Humidity 88    
Maximum Humidity 97    
Minimum Humidity 78    
Precipitation  
Precipitation 0.89 in 0.13 in 2.26 in (1918)
Month to date precipitation 4.00 1.18  
Year to date precipitation 18.12 10.95  
Snow  
Snow 0.00 in 0.00 in T in (1966)
Month to date snowfall 0.0 0.0  
Since 1 July snowfall 33.1 20.9  
Snow Depth 0.00 in    
Sea Level Pressure  
Sea Level Pressure 29.91 in    
Wind  
Wind Speed 7 mph (SSE)    
Max Wind Speed 18 mph    
Max Gust Speed 22 mph    
Visibility 8 miles    
Events Rain , Thunderstorm    
T = Trace of Precipitation, MM = Missing Value Source: NWS Daily Summary

Daily Weather History Graph

Daily Weather History Graph

Search for Another Location

Airport:

Trip Planner

Search our weather history database for the weather conditions in past years. The results will help you decide how hot, cold, wet, or windy it might be!

Date:

Astronomy

May. 09, 2013 Rise Set
Actual Time 5:49 AM CDT 8:01 PM CDT
Civil Twilight 5:19 AM CDT 8:31 PM CDT
Nautical Twilight 4:42 AM CDT 9:08 PM CDT
Astronomical Twilight 4:02 AM CDT 9:48 PM CDT
Moon 5:34 AM CDT (5/9) 7:56 PM CDT (5/9)
Length of Visible Light 15h 11m
Length of Day
14h 11m
Waning Crescent, 0% of the Moon is Illuminated
May 9
Waning Crescent
May 9
New
May 17
First Quarter
May 24
Full
May 31
Last Quarter

Hourly Weather History & Observations

Time (CDT) Temp. Dew Point Humidity Pressure Visibility Wind Dir Wind Speed Gust Speed Precip Events Conditions
12:52 AM 64.0 °F 57.9 °F 80% 29.97 in 10.0 mi SSW 3.5 mph - N/A   Overcast
1:52 AM 64.0 °F 60.1 °F 87% 29.96 in 10.0 mi Calm Calm - N/A   Overcast
2:52 AM 63.0 °F 59.0 °F 87% 29.95 in 10.0 mi Calm Calm - N/A   Overcast
3:52 AM 63.0 °F 57.9 °F 84% 29.95 in 10.0 mi Calm Calm - N/A   Overcast
4:52 AM 63.0 °F 59.0 °F 87% 29.95 in 10.0 mi SSW 5.8 mph - 0.00 in   Overcast
5:52 AM 63.0 °F 59.0 °F 87% 29.94 in 10.0 mi SE 3.5 mph - 0.02 in   Overcast
6:49 AM 62.6 °F 59.0 °F 88% 29.96 in 10.0 mi SSE 4.6 mph - N/A Thunderstorm Thunderstorm
6:52 AM 63.0 °F 59.0 °F 87% 29.95 in 10.0 mi South 3.5 mph - N/A Thunderstorm Thunderstorm
7:52 AM 61.0 °F 59.0 °F 93% 29.99 in 6.0 mi SW 4.6 mph - N/A Rain , Thunderstorm Light Thunderstorms and Rain
8:52 AM 60.1 °F 59.0 °F 96% 29.97 in 9.0 mi NE 3.5 mph - 0.12 in Rain , Thunderstorm Light Thunderstorms and Rain
9:52 AM 64.0 °F 61.0 °F 90% 29.95 in 10.0 mi ESE 10.4 mph - 0.02 in   Mostly Cloudy
10:52 AM 66.0 °F 62.1 °F 87% 29.93 in 10.0 mi ESE 15.0 mph 20.7 mph N/A   Mostly Cloudy
11:28 AM 62.6 °F 60.8 °F 94% 29.98 in 1.8 mi South 13.8 mph 20.7 mph 0.06 in Rain Heavy Rain
11:34 AM 62.6 °F 60.8 °F 94% 29.98 in 3.0 mi South 12.7 mph - 0.14 in Rain , Thunderstorm Heavy Thunderstorms and Rain
11:48 AM 62.6 °F 60.8 °F 94% 29.96 in 4.0 mi ESE 5.8 mph - 0.18 in Rain Rain
11:52 AM 63.0 °F 61.0 °F 93% 29.96 in 4.0 mi SE 6.9 mph - 0.19 in Rain Rain
12:42 PM 62.6 °F 62.6 °F 100% 29.95 in 7.0 mi SE 9.2 mph - 0.03 in Rain Light Rain
12:52 PM 64.4 °F 62.6 °F 94% 29.94 in 6.0 mi SE 5.8 mph - N/A Rain Light Rain
1:52 PM 64.0 °F 63.0 °F 96% 29.92 in 6.0 mi SE 9.2 mph - 0.03 in Rain Light Rain
2:38 PM 64.4 °F 62.6 °F 94% 29.89 in 8.0 mi East 10.4 mph - 0.00 in   Mostly Cloudy
2:52 PM 64.4 °F 62.6 °F 94% 29.88 in 9.0 mi ESE 9.2 mph - N/A   Mostly Cloudy
3:03 PM 66.2 °F 64.4 °F 94% 29.87 in 9.0 mi East 10.4 mph - N/A   Mostly Cloudy
3:52 PM 66.9 °F 64.0 °F 90% 29.85 in 10.0 mi SE 8.1 mph - N/A   Mostly Cloudy
3:59 PM 66.2 °F 64.4 °F 94% 29.86 in 10.0 mi ESE 8.1 mph - N/A   Overcast
4:13 PM 66.2 °F 64.4 °F 94% 29.86 in 10.0 mi SE 6.9 mph - N/A   Overcast
4:52 PM 66.0 °F 63.0 °F 90% 29.84 in 3.0 mi SE 5.8 mph - 0.02 in Rain Light Rain
5:08 PM 64.4 °F 64.4 °F 100% 29.85 in 3.0 mi SE 8.1 mph - 0.02 in Rain Rain
5:10 PM 64.4 °F 64.4 °F 100% 29.85 in 1.5 mi SSE 9.2 mph - 0.03 in Rain Heavy Rain
5:34 PM 64.4 °F 64.4 °F 100% 29.82 in 10.0 mi ESE 8.1 mph - 0.24 in Rain Light Rain
5:52 PM 66.0 °F 64.0 °F 93% 29.82 in 10.0 mi South 4.6 mph - 0.24 in   Overcast
6:22 PM 66.2 °F 64.4 °F 94% 29.83 in 10.0 mi SW 5.8 mph - N/A   Mostly Cloudy
6:52 PM 68.0 °F 62.6 °F 83% 29.83 in 10.0 mi WSW 10.4 mph - N/A   Mostly Cloudy
7:52 PM 64.9 °F 62.1 °F 90% 29.87 in 10.0 mi West 11.5 mph - 0.00 in   Scattered Clouds
8:52 PM 64.4 °F 62.6 °F 94% 29.87 in 9.0 mi SW 10.4 mph - N/A Rain Light Rain
9:52 PM 62.1 °F 59.0 °F 90% 29.87 in 10.0 mi SW 9.2 mph - 0.05 in   Clear
10:52 PM 62.1 °F 59.0 °F 90% 29.86 in 10.0 mi WSW 9.2 mph - N/A   Partly Cloudy
11:52 PM 62.6 °F 59.0 °F 88% 29.86 in 10.0 mi SW 8.1 mph - N/A   Clear